OBJECT A, 60745

Orbit data source: Space-Track

You're viewing an Uncataloged Satellite

Recently launched and/or uncataloged satellites may have evolving metadata. Metadata may include but not limited to: Owner, Maufacturer, Bus, Motor, and Mission.

OBJECT A, 60745 is a satellite owned by Yunyao yuhang (CN) in SSO that was launched on Thu, 29 Aug 2024 UTC via a GUSHENXING 1 launch vehicle from the Yellow Sea Launch Area, China (YSLA). Unknown objects in Earth's orbit typically refer to objects detected orbiting the Earth but have not yet been identified or cataloged. These objects could be anything from previously untracked satellites, spent rocket stages, debris from satellite collisions, or even natural meteoroids temporarily captured by Earth's gravity.

Loading next visibility...
Identifier
60745, 2024-153A
Orbit
SSO
Country
Flag of CNCN / PRC
Related business
None
Manufacturer
Changguang WJ
Mission
Operational Commercial Weather
Bus & Motor
YY-1, Unknown motor
Mass
~50 kg wet, ~50 kg dry
Launch date (UTC)
2024-08-29 (1 year ago)
Launch vehicle
GUSHENXING 1
Launch site
Yellow Sea Launch Area, China (YSLA)
Object type
Unknown
Shape & HBR
Box + 1 Pan, 2.5 m
Radar Cross Section
5.339 m², Medium (>0.1 m² and < 1m²)

Expand to show TLE details & history
Last TLE update: 20 hours ago

TLE from 20 hours ago
0 OBJECT A
1 60745U 24153A   25259.59584428  .00022863  00000-0  94187-3 0  9998
2 60745  97.6486  25.7681 0012228  38.5535 321.6572 15.24040716 58130
Epoch: 2025-09-16T14:18Z
TLE epoch observation values (Epoch: 2025-09-16T14:18:00.945Z)
Latitude
-0.00011°
Longitude
175.48029°
Altitude
490.168 km
Speed
7.624 km/s
True Right ascension
01h 43m 04s
True Declination
0° 00' 00"
Sunlit
Object was in full shadow at epoch
Visualization orbit readout
Latitude
Unknown
Longitude
Unknown
Altitude
Unknown
Speed
Unknown
Apparent Right ascension
Unknown
Apparent Declination
Unknown
Sunlit
N/A
Visualization observer readout
Local Sidereal Time
03:22:01
Azimuth
Unknown
Elevation
Unknown
Doppler factor
Unknown
Orbital elements
Apogee altitude
499.038 km
Perigee altitude
482.239 km
Semi-major axis
6,868.775 km
Eccentricity
0.00122
Inclination
97.6486°
RAAN
25.7681°
Arg. of periapsis
38.5535°
True anomaly
321.57017°
Mean anomaly
321.6572°
Eccentric anomaly
321.61369°
Mean motion
3.81263 °/min
Orbital period
94.42 mins
BSTAR
0.00094187
Loading maneuver chart data...
Computing Atmospheric mass density...
Loading historical data...
Loading historical data...
Loading historical data...
Loading historical data...
Loading historical data...
Loading historical data...
Loading historical data...

Documentation

Showing up to 5 results
|